Home > Weather > Tashkent > Past weeks

Flag for Uzbekistan Past Weather in Tashkent, Uzbekistan — Yesterday and Last 2 Weeks

Now
82 °F

Passing clouds.


Feels Like: 81 °F
Forecast: 70 / 100 °F
Wind: 8 mph from Northwest

Location: Tashkent

Current Time: Jun 28, 2016 at 11:07:49 AM

Latest Report: Jun 28, 2016 at 10:00 AM


Visibility: N/A

Pressure: 29.89 "Hg

Humidity: 30%

Dew Point: 48 °F

Location of TashkentLocation

Past Weather in Tashkent — Graph

°F

Tashkent Temperature Yesterday

Maximum temperature yesterday: 88 °F (at 1:30 PM)
Minimum temperature yesterday: 72 °F (at 4:30 AM)
Average temperature yesterday: 80 °F

High & Low Weather Summary for the Past Weeks

 TemperatureHumidityPressure
High102 °F (Jun 13, 2:00 PM)100% (Jun 16, 6:00 AM)30.04 "Hg (Jun 16, 6:00 AM)
Low64 °F (Jun 15, 11:30 AM)11% (Jun 13, 4:00 PM)29.56 "Hg (Jun 14, 3:30 PM)
Average80 °F43%29.85 "Hg
* Reported Jun 13 9:00 AM — Jun 28 9:30 AM, Tashkent, Weather by CustomWeather, © 2016

Note: Actual official high and low records may vary slightly from our data, if they occured in-between our weather recording intervals... More about our weather records

Advertising

Tashkent Weather History for the Previous 24 Hours

Scroll right to see more
 ConditionsComfort  
Time TempWeatherWind HumidityBarometerVisibility
9:30 AM
Tue, Jun 28
81 °FPassing clouds.9 mph34%29.86 "HgN/A
9:00 AM81 °FPassing clouds.6 mph26%29.89 "HgN/A
8:30 AM79 °FPassing clouds.5 mph39%29.89 "HgN/A
8:00 AM77 °FSunny.2 mph44%29.89 "Hg10 mi
7:30 AM75 °FPassing clouds.3 mph44%29.89 "HgN/A
7:00 AM72 °FPassing clouds.5 mph53%29.89 "HgN/A
6:30 AM70 °FSunny.6 mph57%29.89 "Hg10 mi
6:00 AM68 °FSunny.3 mph49%29.89 "Hg10 mi
5:30 AM70 °FSunny.3 mph40%29.86 "Hg10 mi
5:00 AM70 °FSunny.7 mph40%29.86 "Hg10 mi
4:30 AM70 °FClear.8 mph38%29.86 "Hg10 mi
4:00 AM73 °FPassing clouds.7 mph31%29.86 "HgN/A
3:30 AM72 °FClear.9 mph36%29.86 "Hg10 mi
3:00 AM72 °FPassing clouds.10 mph36%29.86 "HgN/A
2:30 AM72 °FPassing clouds.10 mph36%29.86 "HgN/A
2:00 AM72 °FPassing clouds.12 mph36%29.86 "HgN/A
1:30 AM73 °FPassing clouds.15 mph33%29.86 "HgN/A
1:00 AM73 °FClear.14 mph33%29.86 "Hg10 mi
12:30 AM73 °FClear.14 mph31%29.86 "Hg10 mi
12:00 AM73 °FClear.14 mph33%29.86 "Hg10 mi
11:30 PM
Mon, Jun 27
75 °FClear.16 mph31%29.86 "Hg10 mi
11:00 PM75 °FClear.14 mph31%29.86 "Hg10 mi
10:30 PM77 °FClear.12 mph30%29.86 "Hg10 mi
10:00 PM77 °FClear.13 mph30%29.86 "Hg10 mi
9:30 PM79 °FClear.14 mph28%29.86 "Hg10 mi
9:00 PM81 °FClear.10 mph24%29.86 "Hg10 mi
8:30 PM81 °FClear.10 mph26%29.86 "Hg10 mi
8:00 PM82 °FClear.8 mph23%29.83 "Hg10 mi
7:30 PM84 °FSunny.10 mph23%29.83 "Hg10 mi
7:00 PM84 °FSunny.12 mph25%29.83 "Hg10 mi
6:30 PM86 °FSunny.12 mph25%29.83 "Hg10 mi
6:00 PM86 °FSunny.10 mph27%29.83 "Hg10 mi
5:30 PM86 °FPassing clouds.12 mph27%29.83 "HgN/A
5:00 PM88 °FSunny.15 mph27%29.83 "Hg10 mi
4:30 PM88 °FPassing clouds.12 mph27%29.83 "HgN/A
4:00 PM86 °FPassing clouds.7 mph29%29.83 "HgN/A
3:30 PM88 °FPassing clouds.9 mph27%29.83 "HgN/A
3:00 PM88 °FPassing clouds.15 mph27%29.83 "HgN/A
2:30 PM88 °FPassing clouds.9 mph29%29.83 "HgN/A
2:00 PM86 °FSunny.12 mph33%29.83 "Hg10 mi
1:30 PM88 °FPassing clouds.9 mph33%29.83 "HgN/A
1:00 PM84 °FSunny.9 mph37%29.83 "Hg10 mi
12:30 PM86 °FPassing clouds.12 mph38%29.83 "HgN/A
12:00 PM86 °FPassing clouds.8 mph35%29.83 "HgN/A
11:30 AM84 °FScattered clouds.10 mph43%29.83 "HgN/A
11:00 AM82 °FScattered clouds.9 mph48%29.83 "HgN/A
Weather by CustomWeather, © 2016

See weather overviewHow to use our weather pages